When you browse on this site, cookies collect data to enhance your experience and personalize the content and advertising you see.
Visit our Privacy Policy to learn more. By continuing to use the site, you agree to this use of cookies and data.

Météo par heure à Fredericton

Ce jour, 9 Juillet, Jeudi

Heure Température Précipitation Vent Pression Humidité
00:00 +15°C° 0 mm 0 m/s 757 mmHg 98%
01:00 +15°C° 0 mm 0 m/s 757 mmHg 98%
02:00 +15°C° 0 mm 0 m/s 757 mmHg 98%
03:00 +15°C° 0 mm 0 m/s 757 mmHg 98%
04:00 +15°C° 0 mm 0 m/s 757 mmHg 98%
05:00 +15°C° 0 mm 1 m/s 757 mmHg 98%
06:00 +18°C° 0 mm 1 m/s 758 mmHg 97%
07:00 +19°C° 0 mm 1 m/s 758 mmHg 95%
08:00 +19°C° 0 mm 0 m/s 759 mmHg 93%
09:00 +23°C° 0 mm 1 m/s 759 mmHg 84%
10:00 +25°C° 0 mm 1 m/s 758 mmHg 76%
11:00 +27°C° 0 mm 1 m/s 758 mmHg 67%
12:00 +29°C° 0 mm 1 m/s 758 mmHg 60%
13:00 +31°C° 0 mm 1 m/s 758 mmHg 53%
14:00 +32°C° 0 mm 1 m/s 758 mmHg 45%
15:00 +32°C° 0 mm 1 m/s 758 mmHg 48%
16:00 +31°C° 0 mm 2 m/s 758 mmHg 50%
17:00 +31°C° 0 mm 2 m/s 758 mmHg 52%
18:00 +29°C° 0 mm 2 m/s 758 mmHg 61%
19:00 +27°C° 0 mm 2 m/s 758 mmHg 71%
20:00 +25°C° 0 mm 1 m/s 759 mmHg 80%
21:00 +24°C° 0.4 mm 1 m/s 759 mmHg 86%
22:00 +22°C° 0.4 mm 1 m/s 759 mmHg 91%
23:00 +21°C° 0.4 mm 1 m/s 760 mmHg 96%

Demain, 10 Juillet, Vendredi

Heure Température Précipitation Vent Pression Humidité
00:00 +21°C° 0.1 mm 1 m/s 760 mmHg 96%
01:00 +20°C° 0.1 mm 1 m/s 760 mmHg 96%
02:00 +20°C° 0.1 mm 1 m/s 760 mmHg 97%
03:00 +19°C° 0 mm 1 m/s 760 mmHg 96%
04:00 +19°C° 0 mm 1 m/s 760 mmHg 96%
05:00 +19°C° 0 mm 1 m/s 761 mmHg 96%
06:00 +21°C° 0 mm 1 m/s 761 mmHg 90%
07:00 +23°C° 0 mm 1 m/s 761 mmHg 85%
08:00 +24°C° 0 mm 1 m/s 761 mmHg 80%
09:00 +27°C° 0 mm 1 m/s 761 mmHg 69%
10:00 +29°C° 0 mm 2 m/s 761 mmHg 59%
11:00 +31°C° 0 mm 2 m/s 761 mmHg 48%
12:00 +32°C° 0 mm 2 m/s 761 mmHg 46%
13:00 +34°C° 0 mm 3 m/s 760 mmHg 44%
14:00 +34°C° 0 mm 3 m/s 760 mmHg 42%
15:00 +33°C° 0 mm 3 m/s 760 mmHg 44%
16:00 +33°C° 0 mm 4 m/s 760 mmHg 46%
17:00 +32°C° 0 mm 4 m/s 760 mmHg 48%
18:00 +29°C° 0 mm 3 m/s 760 mmHg 61%
19:00 +26°C° 0 mm 3 m/s 760 mmHg 73%
20:00 +24°C° 0 mm 2 m/s 760 mmHg 85%
21:00 +23°C° 0 mm 2 m/s 760 mmHg 89%
22:00 +21°C° 0 mm 2 m/s 760 mmHg 94%
23:00 +19°C° 0 mm 2 m/s 760 mmHg 98%

Après-demain, 11 Juillet, Samedi

Heure Température Précipitation Vent Pression Humidité
00:00 +20°C° 0 mm 2 m/s 760 mmHg 97%
01:00 +20°C° 0 mm 2 m/s 759 mmHg 97%
02:00 +20°C° 0 mm 2 m/s 759 mmHg 96%
03:00 +20°C° 0 mm 2 m/s 759 mmHg 96%
04:00 +20°C° 0 mm 2 m/s 759 mmHg 96%
05:00 +21°C° 0 mm 2 m/s 758 mmHg 96%
06:00 +21°C° 0 mm 2 m/s 758 mmHg 94%
07:00 +22°C° 0 mm 3 m/s 758 mmHg 92%
08:00 +22°C° 0 mm 3 m/s 758 mmHg 89%
09:00 +22°C° 0.3 mm 3 m/s 758 mmHg 91%
10:00 +22°C° 0.3 mm 3 m/s 757 mmHg 93%
11:00 +22°C° 0.3 mm 3 m/s 757 mmHg 94%
12:00 +22°C° 0.4 mm 3 m/s 756 mmHg 95%
13:00 +22°C° 0.4 mm 3 m/s 756 mmHg 95%
14:00 +23°C° 0.4 mm 4 m/s 755 mmHg 96%
15:00 +23°C° 0 mm 4 m/s 755 mmHg 94%
16:00 +23°C° 0 mm 4 m/s 754 mmHg 93%
17:00 +23°C° 0 mm 4 m/s 753 mmHg 92%
18:00 +23°C° 0 mm 4 m/s 753 mmHg 91%
19:00 +23°C° 0 mm 4 m/s 753 mmHg 90%
20:00 +23°C° 0 mm 4 m/s 753 mmHg 90%
21:00 +22°C° 0.3 mm 4 m/s 752 mmHg 91%
22:00 +22°C° 0.3 mm 4 m/s 752 mmHg 92%
23:00 +22°C° 0.3 mm 4 m/s 752 mmHg 93%

12 Juillet, Dimanche

Heure Température Précipitation Vent Pression Humidité
00:00 +22°C° 0.2 mm 4 m/s 752 mmHg 95%
01:00 +21°C° 0.2 mm 3 m/s 751 mmHg 96%
02:00 +21°C° 0.2 mm 3 m/s 751 mmHg 97%
03:00 +21°C° 0 mm 3 m/s 751 mmHg 97%
04:00 +21°C° 0 mm 3 m/s 751 mmHg 97%
05:00 +21°C° 0 mm 3 m/s 750 mmHg 96%
06:00 +22°C° 0 mm 3 m/s 751 mmHg 94%
07:00 +22°C° 0 mm 3 m/s 751 mmHg 92%
08:00 +23°C° 0 mm 4 m/s 751 mmHg 90%
09:00 +25°C° 0.1 mm 4 m/s 751 mmHg 83%
10:00 +27°C° 0.1 mm 3 m/s 751 mmHg 77%
11:00 +29°C° 0.1 mm 3 m/s 751 mmHg 71%
12:00 +29°C° 0.9 mm 3 m/s 751 mmHg 76%
13:00 +29°C° 0.9 mm 3 m/s 751 mmHg 80%
14:00 +28°C° 0.9 mm 3 m/s 751 mmHg 85%
15:00 +29°C° 0.2 mm 3 m/s 751 mmHg 77%
16:00 +30°C° 0.2 mm 2 m/s 751 mmHg 70%
17:00 +31°C° 0.2 mm 2 m/s 751 mmHg 62%
18:00 +29°C° 0 mm 1 m/s 752 mmHg 70%
19:00 +28°C° 0 mm 1 m/s 752 mmHg 78%
20:00 +26°C° 0 mm 1 m/s 753 mmHg 85%
21:00 +25°C° 0.6 mm 1 m/s 753 mmHg 89%
22:00 +23°C° 0.6 mm 1 m/s 753 mmHg 93%
23:00 +22°C° 0.6 mm 1 m/s 754 mmHg 97%

13 Juillet, Lundi

Heure Température Précipitation Vent Pression Humidité
00:00 +22°C° 1 mm 1 m/s 754 mmHg 97%
01:00 +21°C° 1 mm 1 m/s 754 mmHg 98%
02:00 +21°C° 1 mm 1 m/s 754 mmHg 98%
03:00 +19°C° 0.2 mm 0 m/s 755 mmHg 98%
04:00 +19°C° 0.2 mm 0 m/s 755 mmHg 99%
05:00 +18°C° 0.2 mm 0 m/s 755 mmHg 99%
06:00 +21°C° 0.4 mm 1 m/s 756 mmHg 98%
07:00 +22°C° 0.4 mm 1 m/s 756 mmHg 98%
08:00 +23°C° 0.4 mm 1 m/s 756 mmHg 97%
09:00 +23°C° 0.2 mm 1 m/s 757 mmHg 96%
10:00 +24°C° 0.2 mm 1 m/s 757 mmHg 95%
11:00 +24°C° 0.2 mm 1 m/s 757 mmHg 94%
12:00 +25°C° 0.1 mm 2 m/s 757 mmHg 89%
13:00 +26°C° 0.1 mm 2 m/s 757 mmHg 85%
14:00 +27°C° 0.1 mm 2 m/s 757 mmHg 81%
15:00 +27°C° 0.2 mm 2 m/s 757 mmHg 81%
16:00 +27°C° 0.2 mm 2 m/s 757 mmHg 81%
17:00 +27°C° 0.2 mm 2 m/s 757 mmHg 81%
18:00 +27°C° 0.1 mm 2 m/s 757 mmHg 83%
19:00 +26°C° 0.1 mm 2 m/s 758 mmHg 86%
20:00 +25°C° 0.1 mm 2 m/s 758 mmHg 89%
21:00 +24°C° 0 mm 2 m/s 758 mmHg 91%
22:00 +22°C° 0 mm 3 m/s 759 mmHg 94%
23:00 +21°C° 0 mm 3 m/s 759 mmHg 96%

14 Juillet, Mardi

Heure Température Précipitation Vent Pression Humidité
00:00 +21°C° 0.1 mm 2 m/s 759 mmHg 96%
01:00 +23°C° 0.1 mm 2 m/s 759 mmHg 97%
02:00 +23°C° 0.1 mm 2 m/s 759 mmHg 97%
03:00 +23°C° 0 mm 2 m/s 759 mmHg 97%
04:00 +23°C° 0 mm 2 m/s 759 mmHg 97%
05:00 +21°C° 0 mm 2 m/s 759 mmHg 97%
06:00 +23°C° 0.1 mm 2 m/s 759 mmHg 97%
07:00 +23°C° 0.1 mm 2 m/s 760 mmHg 96%
08:00 +23°C° 0.1 mm 2 m/s 760 mmHg 96%
09:00 +23°C° 0.1 mm 2 m/s 760 mmHg 95%
10:00 +24°C° 0.1 mm 2 m/s 760 mmHg 94%
11:00 +24°C° 0.1 mm 2 m/s 760 mmHg 94%
12:00 +24°C° 0.3 mm 2 m/s 759 mmHg 94%
13:00 +25°C° 0.3 mm 2 m/s 759 mmHg 94%
14:00 +25°C° 0.3 mm 2 m/s 759 mmHg 94%
15:00 +24°C° 0.4 mm 3 m/s 759 mmHg 95%
16:00 +24°C° 0.4 mm 3 m/s 759 mmHg 96%
17:00 +24°C° 0.4 mm 3 m/s 759 mmHg 97%
18:00 +22°C° 0.6 mm 3 m/s 759 mmHg 98%
19:00 +23°C° 0.6 mm 2 m/s 759 mmHg 98%
20:00 +23°C° 0.6 mm 2 m/s 759 mmHg 98%
21:00 +21°C° 0.5 mm 2 m/s 760 mmHg 99%
22:00 +21°C° 0.5 mm 2 m/s 760 mmHg 99%
23:00 +21°C° 0.5 mm 2 m/s 760 mmHg 99%
Voir plus